STARLINK-11197, 60186

Orbit data source: Space-Track

STARLINK-11197, 60186 is a payload satellite owned by SpaceX/Seattle (US) in LEO that was launched on Wed, 03 Jul 2024 UTC via an FALCON 9 launch vehicle from the Air Force Eastern Test Range (AFETR). Payload-class satellites include a variety of spacecraft equipped with specific instruments for various scientific and technological missions. These include communications satellites like Starlink; space stations such as the ISS; scientific satellites like the Hubble; Earth observation satellites from companies like Planet Labs, Umbra, and HawkEye 360; GPS; miniature CubeSats for education and research; and military/defense satellites.

Loading next visibility...
Identifier
60186, 2024-124D
Orbit
LEO
Last TLE update
17 hours ago
Origin
Manufacturer
SpaceX/Seattle
Mission
Operational Commercial Communications
Bus & Motor
STARLINK V2M, Unknown motor
Mass
730 kg wet, ~700 kg dry
Launch date (UTC)
2024-07-03 (10 months ago)
Launch vehicle
FALCON 9
Launch site
Air Force Eastern Test Range (AFETR)
Object type
Payload
Rocket body
Debris
Shape & HBR
Box + 2 Pan, 29 m
Radar Cross Section
36.964 m², Large (>1 m²)

Expand to show TLE details & history

TLE from 17 hours ago
0 STARLINK-11197
1 60186U 24124D   25128.56165946  .00000978  00000-0  12926-4 0  9992
2 60186  53.1596 225.1818 0000933  97.9669 262.1455 15.69710772 49799
Epoch: 2025-05-08T13:28Z
Definitive object data (Epoch: 2025-05-08T13:28:47.377Z)
Latitude
Longitude
156.35401°
Altitude
360.726 km
Speed
7.694 km/s
True Right ascension
15h 00m 43s
True Declination
0° 00' 00"
Sunlit
Object was in full shadow at TLE epoch
Visualization TLE readout
Latitude
44.38662°
Longitude
-74.0237°
Altitude
363.659 km
Speed
7.697 km/s
Apparent Right ascension
01h 18m 40s
Apparent Declination
4° 01' 45"
Sunlit
Object is in daylight
Visualization observer readout
Local Sidereal Time
14:56:33
Azimuth
32.991° NE
Elevation
-40.638°
Doppler factor
1
Orbital elements
Apogee altitude
360.614 km
Perigee altitude
359.357 km
Semi-major axis
6,738.122 km
Eccentricity
0.0000933
Inclination
53.1596°
RAAN
225.1818°
Arg. of periapsis
97.9669°
True anomaly
262.13491°
Mean anomaly
262.1455°
Eccentric anomaly
262.1402°
Mean motion
3.92405 °/min
BSTAR
0.000012926
Orbital period
91.74 mins
Loading maneuver chart data...
Loading SW <> Apogee altitude chart data...
Loading historical data...
Loading historical data...
Loading historical data...
Loading historical data...
Loading historical data...
Loading historical data...
Loading historical data...

STARLINK-11197 Visibility forecast

Observer location: undefined°, undefined°

Span
Click to sort rows by Start time (UTC) header in descending order
Start Az.
Max El. time (UTC)
Max El. Az.
Max El.
End time (UTC)
End Az.
4 mins2025-05-09 09:33:40.153Z260.578° W2025-05-09 09:35:40.153Z355.98° N33.045°2025-05-09 09:37:40.153Z37.157° NE
4 mins2025-05-09 15:58:40.153Z302.14° NW2025-05-09 15:59:40.153Z269.761° W43.167°2025-05-09 16:02:40.153Z135.953° SSE
|